Location: Borek
(50.6991°N, 19.1639°E)
Time: 12:18:25
(UTC+00:00)

Daily predictions for brighter satellites

Satellite Brightness Start Highest point End
(mag) Time Altitude Azimuth Time Altitude Azimuth Time Altitude Azimuth
NOSS 3-2 (A) 4.1 15:08:03 10° S 15:12:23 30° ESE 15:17:24 10° ENE
Cosmos 2026 Rocket 4.0 15:08:04 10° N 15:14:19 78° E 15:20:37 10° SSE
Cosmos 1626 Rocket 4.2 15:11:27 10° N 15:15:26 33° ENE 15:19:20 10° SE
SMAP 3.6 15:13:04 10° SE 15:17:20 37° ENE 15:21:38 10° N
Cosmos 1892 Rocket 3.7 15:13:46 10° NNW 15:18:15 85° W 15:22:42 10° S
Cosmos 2297 4.3 15:12:48 10° SW 15:18:21 55° NW 15:23:56 10° NNE
Cosmos 1634 Rocket 4.2 15:13:37 10° SSE 15:19:35 52° E 15:25:33 10° NNE
Thor Agena Rocket 3.7 15:15:08 10° SE 15:20:11 52° ENE 15:25:12 10° N
CZ-2D R/B 4.1 15:21:00 10° ESE 15:23:22 20° ENE 15:25:46 10° NNE
Landsat 7 4.4 15:19:22 10° SE 15:23:32 33° ENE 15:27:43 10° N
Cosmos 2151 4.1 15:21:36 10° NNE 15:24:53 22° ENE 15:28:11 10° ESE
BREEZE-M DEB (TANK) 3.0 15:23:41 10° WSW 15:26:10 68° SSE 15:32:21 10° E
Cosmos 2297 Rocket 2.6 15:22:03 10° NNW 15:27:27 42° NE 15:32:49 10° ESE
BlueWalker 3 1.8 15:25:46 10° WNW 15:29:23 84° SSW 15:33:02 10° ESE
UNK 4.4 15:26:13 10° NNE 15:30:27 35° E 15:34:37 10° SSE
Meteor 1-27 4.3 15:25:25 10° S 15:31:09 65° E 15:36:53 10° NNE
Cosmos 1656 4.5 15:26:42 10° SSE 15:31:39 33° ESE 15:36:41 10° NE
Cosmos 1743 3.4 15:30:14 10° NNE 15:32:58 24° ENE 15:35:40 10° SE
ATLAS CENTAUR R/B 1.1 15:30:54 10° NNW 15:34:02 40° NE 15:37:05 10° ESE
Lacrosse 4 Rocket 1.3 15:30:17 10° SW 15:34:22 85° NW 15:38:25 10° NE
Cosmos 1544 Rocket 4.2 15:30:34 10° SSE 15:34:32 34° E 15:38:32 10° NNE
Cosmos 1484 Rocket 2.7 15:32:43 10° S 15:36:13 79° WSW 15:39:46 10° NNW
Cosmos 2279 Rocket 4.2 15:31:15 10° SSE 15:37:11 50° E 15:43:10 10° NNE
Cosmos 1092 Rocket 4.1 15:31:09 10° N 15:37:22 83° W 15:43:29 10° S
Iridium 51 3.6 15:40:36 10° S 15:43:41 74° E 15:46:53 10° N
Meteor 1-28 Rocket 2.8 15:40:42 10° NNE 15:44:04 70° ESE 15:47:23 10° S
CZ-4C R/B 2.9 15:42:26 10° NW 15:48:51 56° NE 15:56:57 10° ESE
IGS 5A 3.6 15:47:11 10° S 15:51:08 73° WSW 15:55:07 10° NNW
Cosmos 724 4.4 15:45:54 10° NW 15:51:57 61° NE 15:57:50 10° SE
COSMO-SKYMED 1 4.4 15:52:51 12° E 15:52:51 12° E 15:53:45 10° ESE
Lacrosse 5 rocket 1.0 15:48:22 10° WSW 15:52:08 87° NW 15:54:52 17° ENE
MOS 1 Rocket 3.7 15:47:55 10° SE 15:52:30 44° ENE 15:57:22 10° N
Cosmos 1455 Rocket 3.9 15:49:03 10° SSW 15:53:16 51° WNW 15:57:32 10° N
Cosmos 1602 Rocket 3.9 15:49:05 10° N 15:53:18 43° ENE 15:57:28 10° SE
SAR-Lupe-4 3.6 15:51:09 10° SSE 15:54:37 53° ENE 15:58:06 10° N
Cosmos 2084 3.8 15:50:29 10° WSW 15:54:38 59° NW 15:58:08 14° NE
Cosmos 1570 Rocket 4.1 15:51:34 10° NNW 15:56:57 84° WSW 16:02:16 10° SSE
Cosmos 1867 3.9 15:52:16 10° NW 15:57:30 44° NE 16:02:42 10° ESE
Cosmos 2084 Rocket 3.8 15:54:26 10° NW 15:58:27 42° NE 16:01:57 13° ESE
IRS-P3 4.2 15:55:13 10° SE 16:00:22 53° ENE 16:05:32 10° N
Cosmos 1315 Rocket 3.2 15:56:47 10° SSW 16:00:34 62° WNW 16:04:23 10° N
SAR-Lupe-1 4.1 15:58:19 10° SSE 16:01:51 56° ENE 16:05:24 10° N
CZ-2D R/B 4.3 16:00:15 10° ESE 16:03:51 28° ENE 16:07:26 10° N
NOSS 2-2 (D) 3.0 16:04:00 10° SSW 16:07:15 50° SE 16:08:38 26° ENE
CENTAUR R/B 2.8 16:01:30 10° WSW 16:07:16 67° NW 16:13:45 14° NE
ERS-1 4.4 16:03:13 10° SSE 16:08:12 69° ENE 16:13:10 10° N
YAOGAN 1 3.4 16:04:40 10° ESE 16:08:14 27° ENE 16:11:50 10° N
Cosmos 1782 2.4 16:04:49 10° S 16:08:23 69° E 16:11:59 10° NNE
Cosmos 2263 Rocket 3.1 16:04:17 10° NNW 16:09:08 28° NE 16:12:02 19° E
Cosmos 1486 Rocket 4.2 16:05:45 10° S 16:10:45 51° ESE 16:14:56 15° NE
Cosmos 2266 Rocket 3.9 16:05:36 10° N 16:11:45 61° ENE 16:17:45 10° SSE
IRIDIUM 106 4.3 16:07:42 10° N 16:12:55 63° E 16:18:04 10° SSE
SL-16 R/B 3.0 16:07:06 10° NNE 16:13:16 65° WNW 16:19:23 10° SSW
Cosmos 1607 3.9 16:08:07 10° NW 16:14:21 79° NE 16:20:39 10° SE
Cosmos 2360 4.4 16:09:08 10° S 16:14:38 52° ESE 16:18:51 17° NE
Cosmos 405 Rocket 3.4 16:11:44 10° NNW 16:14:53 46° W 16:18:00 10° S
Cosmos 1733 2.4 16:13:09 10° NNW 16:15:02 48° W 16:16:53 10° S
Cosmos 1356 Rocket 4.3 16:11:34 10° SSW 16:15:28 47° WNW 16:19:27 10° N
NOSS 2-2 (E) 3.0 16:13:06 10° SSW 16:16:21 49° SE 16:17:21 33° ENE
Cosmos 2227 Rocket 2.4 16:12:59 10° NNW 16:18:26 45° NE 16:23:50 10° SE
SJ-12 3.7 16:17:00 10° SSE 16:20:47 85° WSW 16:24:36 10° NNW
USA 215 3.5 16:17:05 20° ENE 16:21:35 54° N 16:27:55 10° WNW
Cosmos 773 Rocket 4.3 16:17:48 10° NNW 16:22:59 72° WSW 16:28:12 10° SSE
SJ-6F 4.2 16:19:26 10° SSE 16:23:23 75° ENE 16:27:23 10° N
Cosmos 1933 3.8 16:20:32 10° SSE 16:24:02 35° E 16:24:47 32° ENE
Cosmos 2369 Rocket 4.0 16:19:34 10° W 16:24:06 24° NW 16:28:41 10° NNE
Cosmos 2228 4.1 16:23:39 10° SSW 16:27:41 43° WNW 16:31:46 10° N
Cosmos 1825 Rocket 3.7 16:23:27 10° N 16:27:42 48° ENE 16:31:53 10° SSE
ARIANE 5 R/B 2.8 16:23:25 10° S 16:28:26 70° WSW 16:33:34 10° NNW
Cosmos 1758 Rocket 4.2 16:24:37 10° NNW 16:28:52 56° W 16:33:03 10° S
SPOT 1/Viking Rocket 3.5 16:26:10 10° SSE 16:31:18 64° ENE 16:36:28 10° N
BREEZE M DEB (TANK) 4.3 16:20:15 10° WNW 16:32:25 52° SW 16:35:57 11° SE
Cosmos 2098 Rocket 3.1 16:28:58 10° SSW 16:32:53 79° W 16:37:36 10° N
IRAS Rocket 4.4 16:27:58 10° SE 16:33:13 47° ENE 16:38:27 10° N
GEOS 3 Rocket 4.0 16:29:20 18° NE 16:33:19 63° NW 16:38:36 10° WSW
Cosmos 1697 Rocket 3.1 16:33:23 10° S 16:38:31 39° ESE 16:40:11 31° ENE
Meteor 1-20 Rocket 4.2 16:37:07 10° NNW 16:42:37 80° W 16:48:03 10° S
Gbstr 26 Del rocket 4.4 16:40:46 10° S 16:43:27 19° SE 16:43:27 19° SE
USA 290 3.2 16:44:31 10° NW 16:47:41 48° WSW 16:50:50 10° S
BREEZE-M DEB (TANK) 3.8 16:51:28 10° W 16:54:53 75° N 16:59:05 31° E
NOSS 2-2 (C) 4.1 16:53:13 10° W 16:55:58 28° NW 16:56:15 28° NNW
NOSS 3-2 (C) 3.1 16:55:45 10° SSW 17:00:46 69° SE 17:02:36 43° ENE
Cosmos 2151 4.2 16:57:58 10° NNW 17:01:52 41° W 17:05:48 10° SSW
Cosmos 1655 Rocket 3.9 16:56:15 10° N 17:02:32 77° E 17:08:45 10° SSE
NOSS 3-2 (A) 3.5 16:57:30 10° WSW 17:02:38 61° NW 17:05:38 30° NNE
Cosmos 2082 4.3 16:57:45 10° NNW 17:02:38 35° NE 17:02:38 35° NE
Cosmos 1606 Rocket 3.4 16:58:38 10° S 17:03:02 86° E 17:04:46 37° NNE
Cosmos 1538 Rocket 4.1 16:59:40 10° NNW 17:04:50 54° ENE 17:05:21 52° E
BlueWalker 3 4.1 17:03:43 10° W 17:06:34 22° SW 17:08:45 13° S
Cosmos 1076 Rocket 3.3 17:04:03 10° N 17:08:22 78° E 17:12:40 10° SSE
ATLAS CENTAUR R/B 3.3 17:06:10 10° WNW 17:08:40 21° WSW 17:11:08 10° S
Okean 1-7 Rocket 4.4 17:05:42 10° NNW 17:09:58 50° W 17:14:11 10° SSW
Resurs 1-3 3.5 17:05:45 10° SSE 17:10:02 87° WSW 17:14:23 10° NNW
Cosmos 2297 Rocket 3.4 17:06:13 10° NW 17:11:30 41° WSW 17:16:46 10° S
Lacrosse 4 Rocket 3.6 17:10:05 10° WNW 17:12:49 17° NW 17:14:13 15° N
Meteor 2-20 4.3 17:07:38 10° S 17:13:44 67° E 17:17:45 22° NNE
Cosmos 1656 4.4 17:09:36 10° SW 17:15:05 51° NW 17:18:29 23° NNE
Cosmos 1503 Rocket 4.1 17:10:48 10° SSW 17:16:03 75° WNW 17:18:11 36° NNE
Cosmos 1461 3.2 17:12:21 10° SSW 17:15:27 54° SSW 17:15:27 54° SSW
OceanSat 1 rocket 4.5 17:11:43 10° SSE 17:16:29 88° ENE 17:21:15 10° NNW
Meteor 2-10 3.9 17:14:28 10° N 17:19:46 70° ENE 17:20:56 53° SE
Cosmos 1354 Rocket 3.9 17:17:36 10° SSW 17:22:53 90° WNW 17:23:57 58° NNE
SKYMED 2 3.9 17:23:07 43° NNW 17:24:20 63° WNW 17:28:37 10° SSW
Cosmos 2219 3.3 17:19:59 10° NNW 17:25:10 55° NNE 17:25:10 55° NNE
Spot 4 Rocket 4.4 17:20:45 10° S 17:25:48 62° WSW 17:30:54 10° NNW
Meteor 1-5 Rocket 4.3 17:22:17 10° NNW 17:27:34 68° W 17:32:56 10° S
COSMO-SKYMED 1 3.2 17:29:12 46° SSW 17:29:12 46° SSW 17:32:07 10° SSW
PSLV R/B 3.9 17:28:53 55° SW 17:29:20 59° WSW 17:33:21 10° NNW
Lacrosse 5 rocket 2.8 17:26:05 10° WNW 17:28:28 28° NW 17:28:28 28° NW
Cosmos 1726 Rocket 3.8 17:25:05 10° SSW 17:29:44 72° WNW 17:30:23 61° NNW
Meteor 2-20 Rocket 4.3 17:30:02 10° S 17:36:17 71° E 17:36:20 71° E
CZ-4C R/B 3.6 17:30:36 10° NW 17:37:25 54° SW 17:45:45 10° SSE
Resurs 01 Rocket 4.1 17:42:49 12° NNW 17:42:49 12° NNW 17:43:07 10° NNW
Cosmos 1980 Rocket 3.2 17:34:33 10° S 17:37:44 33° S 17:37:44 33° S
Cosmos 1867 4.5 17:35:57 10° NW 17:41:09 47° WSW 17:44:00 25° S
YAOGAN 1 3.8 17:39:57 10° SSW 17:43:57 39° W 17:47:57 10° NNW
Cosmos 1844 Rocket 4.3 17:42:37 10° NNW 17:44:55 21° N 17:44:55 21° N
Cosmos 2263 Rocket 2.3 17:47:55 10° NNW 17:53:35 72° WSW 17:53:46 71° SW
CENTAUR R/B 3.9 17:53:23 10° WNW 17:59:15 33° NNW 18:00:51 31° NNE
USA 238 DEB 4.2 17:54:21 10° SSW 17:58:22 42° S 17:58:22 42° S
USA 238 4.2 17:54:27 10° SSW 17:58:26 41° S 17:58:26 41° S
Nadezhda 2 Rocket 4.5 17:56:06 10° NNW 18:01:58 77° WNW 18:01:58 77° WNW
Cosmos 2227 Rocket 3.5 17:57:14 10° NW 18:02:24 38° WSW 18:06:42 14° S
USA 215 3.1 18:04:26 83° N 18:04:26 83° N 18:10:54 10° WNW
USA 281 4.2 18:11:46 34° N 18:11:46 34° N 18:15:33 10° NNW
Cosmos 1697 Rocket 3.7 18:17:05 10° WSW 18:21:56 43° WNW 18:21:56 43° WNW
